"TOA5","AWS1","CR1000","7964","CR1000.Std.14","CPU:AWS1_114.CR1","64363","TBL110"
"TIMESTAMP","RECORD","Wind_spd_WVc(1)","Wind_spd_WVc(2)","Air_Temp_Avg","Humidity_Avg","SW_upper_Wm2_Avg","Rain_Tot","Press_Avg","Issui_Tot","Depth_cm","SR50A_Raw","Quality","Ground_Temp_Avg(1)","Ground_Temp_Avg(2)","SW_lower_Wm2_Avg","Albedo_Avg","SWC_per(1)","SWC_per(2)","Period(1)","Period(2)"
"TS","RN","","","","","","","","","","","","","","","","","","",""
"","","WVc","WVc","Avg","Avg","Avg","Tot","Avg","Tot","Smp","Smp","Smp","Avg","Avg","Avg","Avg","Smp","Smp","Smp","Smp"
"2017-11-06 00:00:00",313261,0.033,146,2.213,85.6,0,0,875.6859,0,9.38,3.073,282,6.565,8.13,0.6674149,0,51.49,58.79,33.66,35.4
"2017-11-06 00:10:00",313262,0.116,174.3,2.496,84,0,0,875.6837,0,9.29,3.071,275,6.567,8.12,0.9442405,0,51.49,58.79,33.66,35.4
"2017-11-06 00:20:00",313263,0.015,223,3.08,81.1,0,0,875.6774,0,9.1,3.07,265,6.589,8.1,1.28174,0,51.55,58.79,33.68,35.4
"2017-11-06 00:30:00",313264,0.147,195.6,2.746,82.3,0,0,875.6542,0,9.59,3.069,269,6.576,8.07,0.4550557,0,51.55,58.79,33.68,35.4
"2017-11-06 00:40:00",313265,0.116,167.7,2.913,83.7,0,0,875.553,0,10.15,3.061,277,6.533,8.07,0.6825835,0,51.49,58.79,33.66,35.4
"2017-11-06 00:50:00",313266,0.196,125.1,2.909,84.3,0,0,875.5468,0,9.05,3.071,294,6.561,8.05,0.580196,0,51.49,58.79,33.66,35.4
"2017-11-06 01:00:00",313267,0.084,30.29,3.679,82.2,0,0,875.6605,0,8.71,3.072,293,6.557,8.05,1.084549,0,51.49,58.79,33.66,35.4
"2017-11-06 01:10:00",313268,0.058,125.3,3.749,82.1,0,0,875.5551,0,2.992,3.129,216,6.526,8.05,0.64087,0,51.49,58.73,33.66,35.39
"2017-11-06 01:20:00",313269,0.56,119.9,3.825,82.6,0,0,875.454,0,-29.87,3.453,205,6.487,8.06,0.9404483,0,51.49,58.73,33.66,35.39
"2017-11-06 01:30:00",313270,0.377,162.9,4.158,82.3,0,0,875.4308,0,9.07,3.065,242,6.479,8.06,0.7167127,0,51.49,58.73,33.66,35.39
"2017-11-06 01:40:00",313271,0.207,174.6,4.111,82.2,0,0,875.4308,0,9.42,3.064,260,6.479,8.08,0.1516852,0,51.49,58.79,33.66,35.4
"2017-11-06 01:50:00",313272,0.108,85.7,3.615,84.5,0,0,875.435,0,9.05,3.07,277,6.479,8.06,0,0,51.55,58.79,33.68,35.4
"2017-11-06 02:00:00",313273,0.044,92.2,3.337,86.3,0,0,875.4245,0,9.41,3.066,266,6.479,8.04,0.00379213,0,51.55,58.79,33.68,35.4
"2017-11-06 02:10:00",313274,0.461,137.6,3.644,84.2,0,0,875.3929,0,8.05,3.078,273,6.49,8.04,0.436095,0,51.55,58.79,33.68,35.4
"2017-11-06 02:20:00",313275,0.375,135.8,4.125,81.9,0,0,875.4308,0,8.27,3.073,267,6.496,8.04,0.758426,0,51.49,58.79,33.66,35.4
"2017-11-06 02:30:00",313276,0.183,121,4.047,81.8,0,0,875.2748,0,7.909,3.078,272,6.465,8.04,0.04929769,0,51.49,58.73,33.66,35.39
"2017-11-06 02:40:00",313277,0.096,122.8,4.099,81.7,0,0,875.1779,0,8.87,3.068,334,6.427,8.04,0.1516852,0,51.55,58.73,33.68,35.39
"2017-11-06 02:50:00",313278,0.357,101.4,4.183,80.9,0,0,875.1779,0,6.497,3.092,245,6.396,8.04,0.2237357,0,51.55,58.79,33.68,35.4
"2017-11-06 03:00:00",313279,0.188,74.36,4.17,80.6,0,0,875.1611,0,6.747,3.09,254,6.392,8.04,0.2199436,0,51.49,58.73,33.66,35.39
"2017-11-06 03:10:00",313280,0.149,190.7,4.208,80.6,0,0,875.0746,0,8.61,3.072,371,6.392,8.04,0.2502806,0,51.49,58.73,33.66,35.39
"2017-11-06 03:20:00",313281,0.322,125.9,3.831,81.9,0,0,874.9735,0,5.592,3.101,218,6.392,8.04,0.1403088,0,51.49,58.73,33.66,35.39
"2017-11-06 03:30:00",313282,0.194,140.6,4.15,79.66,0,0,875.1273,0,5.176,3.109,203,6.388,8.04,0.4057579,0,51.49,58.73,33.66,35.39
"2017-11-06 03:40:00",313283,0.294,192.8,3.39,83,0,0,875.1779,0,5.979,3.102,224,6.318,8.04,0.117556,0,51.49,58.73,33.66,35.39
"2017-11-06 03:50:00",313284,0.245,63.07,3.548,82.5,0,0,875.1779,0,6.501,3.091,228,6.316,8.04,0.4550557,0,51.49,58.73,33.66,35.39
"2017-11-06 04:00:00",313285,0.175,94.6,4.165,79.07,0,0,875.1779,0,7.255,3.084,243,6.335,8.04,0.5081455,0,51.49,58.73,33.66,35.39
"2017-11-06 04:10:00",313286,0.083,111.5,4.117,79.14,0,0,875.1779,0,4.521,3.116,217,6.292,8.03,0.2995783,0,51.55,58.73,33.68,35.39
"2017-11-06 04:20:00",313287,0.181,164.5,2.366,85.6,0,0,875.1779,0,4.305,3.125,210,6.306,8.04,0,0,51.49,58.73,33.66,35.39
"2017-11-06 04:30:00",313288,0.204,154.2,2.684,86.6,0,0,875.1779,0,1.15,3.15,217,6.306,8.04,0.3147468,0,51.49,58.73,33.66,35.39
"2017-11-06 04:40:00",313289,0.186,104.5,3.151,82.8,0,0,875.1779,0,2.615,3.132,245,6.284,8.02,0.5119376,0,51.49,58.73,33.66,35.39
"2017-11-06 04:50:00",313290,0.332,91.3,4.329,76.64,0,0,875.1358,0,3.334,3.12,231,6.235,7.998,1.444802,0,51.49,58.73,33.66,35.39
"2017-11-06 05:00:00",313291,0.358,322.4,4.625,75.3,0,0,875.0135,0,6.408,3.09,234,6.223,7.962,0.8873585,0,51.49,58.73,33.66,35.39
"2017-11-06 05:10:00",313292,0.224,4.848,4.489,75.77,0,0,875.0178,0,4.277,3.116,213,6.223,7.953,0.2426963,0,51.49,58.73,33.66,35.39
"2017-11-06 05:20:00",313293,0.231,168.1,2.672,82.4,0,0,875.1547,0,4.432,3.123,207,6.258,7.952,0,0,51.49,58.73,33.66,35.39
"2017-11-06 05:30:00",313294,0.128,197.6,2.19,85.4,0,0,875.1738,0,2.397,3.144,226,6.222,7.952,0.007584261,0,51.49,58.73,33.66,35.39
"2017-11-06 05:40:00",313295,0.204,14.79,3.389,80.1,0,0,875.1252,0,3.222,3.125,232,6.219,7.952,0.9783696,0,51.49,58.73,33.66,35.39
"2017-11-06 05:50:00",313296,0.021,21.51,3.922,76.82,0,0,874.9756,0,3.721,3.122,210,6.219,7.954,0.7622182,0,51.49,58.73,33.66,35.39
"2017-11-06 06:00:00",313297,0.16,222.8,3.199,79.87,0,0,874.9271,0,4.361,3.122,296,6.219,7.978,0.05688196,0,51.49,58.73,33.66,35.39
"2017-11-06 06:10:00",313298,0.191,304.8,3.461,79.82,0,0,874.9271,0,4.605,3.112,228,6.221,7.999,0.7394654,0,51.49,58.73,33.66,35.39
"2017-11-06 06:20:00",313299,0.404,311.3,3.97,76.26,0.08652531,0,874.9545,0,3.927,3.118,226,6.205,7.997,0.8873585,0.589,51.55,58.73,33.68,35.39
"2017-11-06 06:30:00",313300,0.464,313.4,4.131,77.26,2.418776,0,875.0746,0,6.251,3.093,298,6.21,7.994,1.160392,0.582,51.49,58.73,33.66,35.39
"2017-11-06 06:40:00",313301,0.297,326.3,4.127,77.41,5.211184,0,875.1442,0,6.634,3.095,226,6.211,7.984,1.020083,0.196,51.49,58.73,33.66,35.39
"2017-11-06 06:50:00",313302,0.105,170.3,2.966,81.9,6.682114,0,875.159,0,6.212,3.106,219,6.248,7.993,0.1782301,0.027,51.49,58.73,33.66,35.39
"2017-11-06 07:00:00",313303,0.062,197.3,2.593,84.3,10.7606,0,875.2391,0,8.2,3.078,326,6.141,7.965,0.9859539,0.081,51.49,58.73,33.66,35.39
"2017-11-06 07:10:00",313304,0.322,358.3,4.378,73.32,21.37568,0,875.4119,0,7.775,3.075,257,6.132,7.967,5.938476,0.264,51.49,58.73,33.66,35.39
"2017-11-06 07:20:00",313305,0.385,328.5,5.044,68.43,28.32131,0,875.4308,0,1.779,3.132,218,6.132,7.944,11.69114,0.413,51.49,58.73,33.66,35.39
"2017-11-06 07:30:00",313306,0.162,311.2,5.021,69.8,32.62791,0,875.5447,0,10.81,3.044,455,6.119,7.952,12.30546,0.378,51.49,58.73,33.66,35.39
"2017-11-06 07:40:00",313307,0.052,7.306,5.215,71.33,75.26523,0,875.6226,0,3.826,3.111,204,6.086,7.95,13.84886,0.206,51.49,58.67,33.66,35.37
"2017-11-06 07:50:00",313308,0.282,353.1,5.618,68.52,137.6579,0,875.6796,0,9.15,3.055,348,6.052,7.952,17.88748,0.131,51.49,58.73,33.66,35.39
"2017-11-06 08:00:00",313309,0.194,25.44,6.052,68.38,67.27737,0,875.6802,0,-30.56,3.447,211,6.052,7.952,16.71571,0.29,51.49,58.73,33.66,35.39
"2017-11-06 08:10:00",313310,0.304,352.5,6.065,68.99,70.54959,0,875.7504,0,10.54,3.041,398,6.047,7.952,15.34675,0.238,51.49,58.73,33.66,35.39
"2017-11-06 08:20:00",313311,0.316,349.6,6.389,69.4,41.88563,0,875.8293,0,8.38,3.061,371,6.056,7.948,16.59796,0.396,51.49,58.73,33.66,35.39
"2017-11-06 08:30:00",313312,0.388,66.45,6.583,70.33,47.93243,0,875.8245,0,-29.26,3.431,210,6.058,7.908,17.09404,0.366,51.49,58.67,33.66,35.37
"2017-11-06 08:40:00",313313,0.89,131.1,6.975,70.56,47.99519,0,875.8434,0,4.882,3.091,208,6.058,7.857,17.60062,0.368,51.49,58.73,33.66,35.39
"2017-11-06 08:50:00",313314,0.838,134.5,7.276,67.52,69.6204,0,875.8423,0,5.053,3.088,234,6.069,7.805,17.70874,0.275,51.49,58.73,33.66,35.39
"2017-11-06 09:00:00",313315,0.986,133.3,7.482,65.43,47.41717,0,875.842,0,8.41,3.053,264,6.057,7.786,18.28388,0.386,51.49,58.67,33.66,35.37
"2017-11-06 09:10:00",313316,0.645,111.3,7.788,65.23,47.76199,0,875.842,0,-29.97,3.43,200,6.079,7.778,18.27206,0.383,51.49,58.67,33.66,35.37
"2017-11-06 09:20:00",313317,0.8,133.1,8.26,62.26,49.46399,0,875.8399,0,9.52,3.037,320,6.02,7.756,18.59412,0.376,51.49,58.73,33.66,35.39
"2017-11-06 09:30:00",313318,0.765,143.6,8.8,59.14,50.61583,0,875.828,0,9.84,3.032,297,6.024,7.742,19.08689,0.378,51.49,58.67,33.66,35.37
"2017-11-06 09:40:00",313319,0.988,134.6,9.14,55.56,49.72725,0,875.7638,0,3.362,3.095,228,6.021,7.743,20.22034,0.407,51.49,58.67,33.66,35.37
"2017-11-06 09:50:00",313320,0.84,127.1,9.3,51.88,50.50571,0,875.7441,0,9.4,3.033,280,6.02,7.74,21.34621,0.423,51.49,58.67,33.66,35.37
"2017-11-06 10:00:00",313321,0.819,139.5,9.67,51.16,51.15834,0,875.7496,0,10.59,3.02,278,6.018,7.736,23.07103,0.451,51.49,58.67,33.66,35.37
"2017-11-06 10:10:00",313322,0.786,131.4,9.9,49.37,51.51827,0,875.7484,0,9.94,3.026,277,6.004,7.729,25.47732,0.494,51.49,58.67,33.66,35.37
"2017-11-06 10:20:00",313323,0.724,132.5,10.12,48.04,83.38953,0,875.7665,0,11.19,3.012,254,5.996,7.698,29.09437,0.379,51.49,58.67,33.66,35.37
"2017-11-06 10:30:00",313324,0.972,129.6,10.31,48.23,62.18687,0,875.7537,0,9.9,3.023,275,5.979,7.67,32.74482,0.542,51.49,58.73,33.66,35.39
"2017-11-06 10:40:00",313325,0.785,140.8,10.47,47.42,189.0853,0,875.7242,0,10.11,3.021,302,5.952,7.658,35.89209,0.208,51.49,58.67,33.66,35.37
"2017-11-06 10:50:00",313326,0.643,148.2,10.62,46.63,219.3717,0,875.5135,0,-26.74,3.382,209,5.923,7.656,40.61303,0.197,51.49,58.67,33.66,35.37
"2017-11-06 11:00:00",313327,0.666,48.62,10.4,49.02,138.4722,0,875.4588,0,-29.28,3.408,212,5.913,7.677,50.12827,0.508,51.44,58.67,33.65,35.37
"2017-11-06 11:10:00",313328,0.736,118.2,11.03,46.68,271.1901,0,875.3093,0,9.76,3.021,299,5.91,7.713,62.39111,0.354,51.49,58.67,33.66,35.37
"2017-11-06 11:20:00",313329,0.67,274.1,10.61,48.11,183.3872,0,875.2376,0,9.74,3.023,220,6.01,7.716,65.30522,0.386,51.44,58.67,33.65,35.37
"2017-11-06 11:30:00",313330,0.482,143.1,11.17,46.51,164.5179,0,875.0628,0,7.748,3.04,281,6.015,7.725,65.95323,0.463,51.44,58.67,33.65,35.37
"2017-11-06 11:40:00",313331,1.074,126.4,11.4,47,549.7528,0,874.9604,0,9.68,3.019,302,5.997,7.708,77.87135,0.162,51.44,58.67,33.65,35.37
"2017-11-06 11:50:00",313332,0.863,127,11.65,45.33,715.121,0,874.7804,0,9.89,3.018,444,6.038,7.688,87.49669,0.122,51.44,58.67,33.65,35.37
"2017-11-06 12:00:00",313333,0.45,133.8,11.98,44,711.4973,0,874.4954,0,8.82,3.025,275,6.035,7.671,95.26868,0.134,51.44,58.67,33.65,35.37
"2017-11-06 12:10:00",313334,0.659,124.1,12.19,42.09,708.3495,0,874.2937,0,10.04,3.014,331,6.052,7.659,97.3169,0.137,51.49,58.67,33.66,35.37
"2017-11-06 12:20:00",313335,0.54,34.64,11.81,43.87,700.0846,0,874.1169,0,9.74,3.017,326,6.031,7.644,95.49332,0.136,51.49,58.67,33.66,35.37
"2017-11-06 12:30:00",313336,0.773,140.5,12.22,41.13,688.5268,0,873.9559,0,9.92,3.013,358,5.997,7.639,94.65794,0.137,51.49,58.67,33.66,35.37
"2017-11-06 12:40:00",313337,0.574,136.2,12.45,42.8,676.747,0,873.8798,0,8.95,3.022,277,6,7.638,90.25912,0.133,51.49,58.67,33.66,35.37
"2017-11-06 12:50:00",313338,0.385,18.02,12.07,43.75,659.5919,0,873.6377,0,10.27,3.011,336,6.038,7.594,79.70108,0.121,51.49,58.67,33.66,35.37
"2017-11-06 13:00:00",313339,0.365,2.117,11.9,45.56,645.9542,0,873.5372,0,10.19,3.014,323,6.076,7.534,73.75727,0.114,51.44,58.67,33.65,35.37
"2017-11-06 13:10:00",313340,0.629,349.7,11.86,46.06,626.5137,0,873.3757,0,9.67,3.021,377,6.107,7.504,69.31743,0.111,51.49,58.67,33.66,35.37
"2017-11-06 13:20:00",313341,0.211,319.5,11.46,47.14,610.4915,0,873.3358,0,9.94,3.016,301,6.113,7.466,57.97162,0.095,51.44,58.67,33.65,35.37
"2017-11-06 13:30:00",313342,0.31,144,11.99,45.48,589.0866,0,873.1573,0,9.8,3.014,322,6.084,7.466,42.92468,0.073,51.44,58.67,33.65,35.37
"2017-11-06 13:40:00",313343,0.547,344.2,11.87,43.39,539.9237,0,873.1006,0,9.89,3.017,335,6.081,7.469,37.40899,0.069,51.44,58.67,33.65,35.37
"2017-11-06 13:50:00",313344,0.447,40.69,11.68,45.36,225.5058,0,872.9869,0,9.84,3.017,305,6.081,7.493,17.27443,0.136,51.44,58.67,33.65,35.37
"2017-11-06 14:00:00",313345,0.394,347.9,11.63,45.47,32.58668,0,872.9343,0,9.88,3.018,302,6.081,7.529,7.553774,0.232,51.44,58.67,33.65,35.37
"2017-11-06 14:10:00",313346,0.391,351.9,11.32,47.47,33.4982,0,872.9827,0,-30.14,3.411,223,6.104,7.536,5.13687,0.153,51.44,58.67,33.65,35.37
"2017-11-06 14:20:00",313347,0.252,334.4,11.42,46.5,33.30203,0,872.928,0,9.92,3.018,330,6.169,7.524,4.625494,0.139,51.44,58.67,33.65,35.37
"2017-11-06 14:30:00",313348,0.351,345.1,11.18,46.01,32.10239,0,872.9037,0,10.19,3.017,276,6.192,7.515,3.98939,0.124,51.44,58.67,33.65,35.37
"2017-11-06 14:40:00",313349,0.279,2.143,11.37,45.25,30.63225,0,872.9402,0,9.77,3.021,517,6.22,7.523,3.989826,0.13,51.44,58.67,33.65,35.37
"2017-11-06 14:50:00",313350,0.139,344.7,11.25,46.82,28.7248,0,872.9625,0,10.63,3.013,239,6.242,7.578,3.334606,0.116,51.38,58.67,33.64,35.37
"2017-11-06 15:00:00",313351,0.263,354.5,11.12,46.9,26.84725,0,873.1065,0,9.48,3.024,471,6.252,7.593,2.982311,0.111,51.44,58.67,33.65,35.37
"2017-11-06 15:10:00",313352,0.168,284.8,10.92,48.08,24.43443,0,873.2068,0,10.42,3.017,276,6.262,7.596,2.36087,0.096,51.38,58.61,33.64,35.36
"2017-11-06 15:20:00",313353,0.285,6.406,10.67,49.4,22.02134,0,873.2197,0,10.64,3.016,388,6.336,7.609,1.925084,0.087,51.44,58.67,33.65,35.37
"2017-11-06 15:30:00",313354,0.226,311.6,10.4,51.73,20.17414,0,873.2219,0,9.51,3.029,473,6.374,7.614,1.606765,0.079,51.44,58.67,33.65,35.37
"2017-11-06 15:40:00",313355,0.22,348.8,10.09,53.92,17.98498,0,873.2492,0,9.77,3.028,493,6.386,7.582,1.208864,0.067,51.38,58.67,33.64,35.37
"2017-11-06 15:50:00",313356,0.059,7.762,9.86,53.31,15.94909,0,873.3588,0,9.82,3.028,522,6.386,7.589,0.9549643,0.06,51.44,58.67,33.65,35.37
"2017-11-06 16:00:00",313357,0.098,65.02,9.64,53.1,14.14907,0,873.4072,0,10.09,3.027,396,6.387,7.599,0.9435993,0.067,51.44,58.67,33.65,35.37
"2017-11-06 16:10:00",313358,0.158,52.17,9.5,52.53,12.48687,0,873.4662,0,7.537,3.052,298,6.393,7.6,1.083843,0.087,51.38,58.61,33.64,35.36
"2017-11-06 16:20:00",313359,0.153,43.09,9.41,52.64,10.02349,0,873.4725,0,9.88,3.029,355,6.423,7.62,0.9247627,0.092,51.38,58.61,33.64,35.36
"2017-11-06 16:30:00",313360,0.027,40.31,9.31,52.68,6.604428,0,873.4725,0,8.43,3.045,442,6.455,7.592,0.5799345,0.086,51.44,58.67,33.65,35.37
"2017-11-06 16:40:00",313361,0.039,14.63,9.1,52.82,3.538302,0,873.4725,0,9.5,3.036,403,6.481,7.598,0.2767168,0.061,51.38,58.61,33.64,35.36
"2017-11-06 16:50:00",313362,0,0,8.69,54.24,0.2791397,0,873.4734,0,8.37,3.05,417,6.48,7.602,0.015163,0.011,51.38,58.61,33.64,35.36
"2017-11-06 17:00:00",313363,0.004,13.13,8.24,56.32,0,0,873.4775,0,3.584,3.099,224,6.475,7.621,0,0,51.38,58.61,33.64,35.36
"2017-11-06 17:10:00",313364,0.093,13.24,7.721,59.21,0,0,873.4777,0,4.609,3.092,240,6.477,7.675,0,0,51.38,58.61,33.64,35.36
"2017-11-06 17:20:00",313365,0.028,13.15,7.305,61.25,0,0,873.5225,0,3.409,3.106,225,6.49,7.687,0,0,51.38,58.61,33.64,35.36
"2017-11-06 17:30:00",313366,0.143,299.2,7.199,60.69,0,0,873.5599,0,3.53,3.106,233,6.512,7.687,0.03032669,0,51.38,58.61,33.64,35.36
"2017-11-06 17:40:00",313367,0.37,179,6.24,66.25,0,0,873.5927,0,2.754,3.118,223,6.52,7.687,0,0,51.38,58.61,33.64,35.36
"2017-11-06 17:50:00",313368,0.467,172.4,5.725,68.4,0,0,873.6057,0,2.895,3.12,213,6.53,7.687,0,0,51.38,58.61,33.64,35.36
"2017-11-06 18:00:00",313369,0.414,161.9,5.52,68.94,0,0,873.6273,0,3.177,3.116,220,6.536,7.687,0,0,51.38,58.61,33.64,35.36
"2017-11-06 18:10:00",313370,0.395,183.3,5.766,65.96,0,0,873.7897,0,3.166,3.112,203,6.552,7.687,0.08339839,0,51.38,58.61,33.64,35.36
"2017-11-06 18:20:00",313371,0.203,191.8,5.981,64.3,0,0,873.8192,0,3.327,3.115,202,6.501,7.679,0.185751,0,51.38,58.61,33.64,35.36
"2017-11-06 18:30:00",313372,0.114,190.6,6.004,63.46,0,0,873.8192,0,2.387,3.125,208,6.472,7.66,0.2994762,0,51.38,58.61,33.64,35.36
"2017-11-06 18:40:00",313373,0.35,189,5.246,64.99,0,0,873.6949,0,3.005,3.12,206,6.445,7.645,0,0,51.38,58.61,33.64,35.36
"2017-11-06 18:50:00",313374,0.226,191.8,5.323,64.85,0,0,873.5664,0,3.073,3.119,203,6.448,7.637,0.003791295,0,51.38,58.61,33.64,35.36
"2017-11-06 19:00:00",313375,0.351,188.1,5.185,63.8,0,0,873.5664,0,2.902,3.124,207,6.51,7.649,0.01516628,0,51.38,58.61,33.64,35.36
"2017-11-06 19:10:00",313376,0.591,181.3,4.338,61.09,0,0,873.5667,0,3.393,3.12,202,6.538,7.668,0,0,51.38,58.61,33.64,35.36
"2017-11-06 19:20:00",313377,0.551,178.5,4.439,53.45,0,0,873.582,0,3.742,3.116,202,6.554,7.696,0,0,51.38,58.61,33.64,35.36
"2017-11-06 19:30:00",313378,0.652,188.1,4.907,40.54,0,0,873.5963,0,3.498,3.115,206,6.561,7.714,0.3185346,0,51.33,58.61,33.62,35.36
"2017-11-06 19:40:00",313379,0.49,187.3,5.099,36.6,0,0,873.5997,0,3.193,3.118,218,6.564,7.717,0.19719,0,51.33,58.61,33.62,35.36
"2017-11-06 19:50:00",313380,0.758,185.6,4.851,40.13,0,0,873.6122,0,3.587,3.117,219,6.561,7.701,0,0,51.33,58.61,33.62,35.36
"2017-11-06 20:00:00",313381,0.482,185.9,4.925,38.37,0,0,873.6246,0,4.247,3.109,213,6.495,7.7,0.05688195,0,51.33,58.56,33.62,35.35
"2017-11-06 20:10:00",313382,0.663,187.2,4.717,41.54,0,0,873.8269,0,4.843,3.106,226,6.482,7.705,0,0,51.33,58.56,33.62,35.35
"2017-11-06 20:20:00",313383,0.328,183.2,4.496,43.17,0,0,873.8829,0,8.27,3.072,424,6.472,7.714,0,0,51.38,58.56,33.64,35.35
"2017-11-06 20:30:00",313384,0.517,182.3,4.658,40.88,0,0,873.8724,0,-29.56,3.447,185,6.479,7.722,0.00379213,0,51.33,58.56,33.62,35.35
"2017-11-06 20:40:00",313385,0.483,189.4,4.777,39.56,0,0,873.8784,0,11,3.044,338,6.478,7.727,0.1478931,0,51.33,58.61,33.62,35.36
"2017-11-06 20:50:00",313386,0.506,178.1,4.594,40.37,0,0,873.8822,0,10.99,3.045,311,6.479,7.722,0.01516852,0,51.33,58.56,33.62,35.35
"2017-11-06 21:00:00",313387,0.369,187.1,5.435,33.72,0,0,873.817,0,10.16,3.04,244,6.479,7.72,0.9176956,0,51.33,58.56,33.62,35.35
"2017-11-06 21:10:00",313388,0.26,194.2,6.456,30.84,0,0,873.8505,0,9.91,3.047,245,6.479,7.708,0.7318811,0,51.38,58.56,33.64,35.35
"2017-11-06 21:20:00",313389,0.084,189.3,6.372,28.47,0,0,873.8627,0,9.75,3.046,284,6.479,7.698,0.4512635,0,51.38,58.56,33.64,35.35
"2017-11-06 21:30:00",313390,0.124,172.8,6.776,25.2,0,0,873.9059,0,10.53,3.034,244,6.479,7.713,0.7508418,0,51.33,58.56,33.62,35.35
"2017-11-06 21:40:00",313391,0.106,143.4,7.287,21.44,0,0,873.8972,0,11.29,3.027,270,6.469,7.75,0.8228922,0,51.38,58.56,33.64,35.35
"2017-11-06 21:50:00",313392,0.231,99.1,7.295,20,0,0,873.9073,0,-28.08,3.415,182,6.419,7.764,0.5271061,0,51.33,58.56,33.62,35.35
"2017-11-06 22:00:00",313393,0.42,128.7,7.151,20.11,0,0,873.8954,0,13.61,3.005,324,6.376,7.779,0.1782301,0,51.33,58.56,33.62,35.35
"2017-11-06 22:10:00",313394,0.527,121.4,7.176,19.99,0,0,873.8771,0,12.5,3.016,258,6.33,7.779,0.08342686,0,51.33,58.56,33.62,35.35
"2017-11-06 22:20:00",313395,0.542,129.2,6.942,20.79,0,0,873.8261,0,12.39,3.018,222,6.337,7.779,0,0,51.33,58.56,33.62,35.35
"2017-11-06 22:30:00",313396,0.579,146,6.124,25.28,0,0,873.7015,0,12.06,3.028,224,6.388,7.779,0,0,51.33,58.56,33.62,35.35
"2017-11-06 22:40:00",313397,0.422,149.3,5.618,27.39,0,0,873.5776,0,12.7,3.018,225,6.392,7.779,0.06446622,0,51.33,58.56,33.62,35.35
"2017-11-06 22:50:00",313398,0.3,123.4,7.067,21.84,0,0,873.5856,0,11.79,3.023,219,6.39,7.776,0.3640418,0,51.33,58.56,33.62,35.35
"2017-11-06 23:00:00",313399,0.305,119.8,6.843,23.58,0,0,873.5756,0,12.55,3.016,222,6.389,7.776,0,0,51.27,58.56,33.61,35.35
"2017-11-06 23:10:00",313400,0.254,122.2,6.915,24.97,0,0,873.5719,0,12.78,3.016,226,6.375,7.777,0.003792115,0,51.33,58.56,33.62,35.35
"2017-11-06 23:20:00",313401,0.213,131.4,6.683,27.18,0,0,873.5667,0,12.45,3.017,216,6.302,7.772,0.003791963,0,51.33,58.56,33.62,35.35
"2017-11-06 23:30:00",313402,0.293,144.7,7.106,26.47,0,0,873.5623,0,12.06,3.02,222,6.286,7.76,0.03791802,0,51.27,58.56,33.61,35.35
"2017-11-06 23:40:00",313403,0.582,141.7,6.91,28.59,0,0,873.5665,0,12.73,3.013,218,6.225,7.747,0.1895858,0,51.33,58.56,33.62,35.35
"2017-11-06 23:50:00",313404,0.924,141.9,7.072,27.67,0,0,873.6297,0,12.25,3.021,227,6.189,7.741,0.2009566,0,51.33,58.56,33.62,35.35
